Hourly Weather Abapo

Today, 1 March, Monday

Time Temperature Precipitation Wind Pressure Humidity
00:00 +26°C° 0 mm 1 mps 709 mmHg 61%
01:00 +26°C° 0 mm 1 mps 709 mmHg 60%
02:00 +26°C° 0 mm 1 mps 709 mmHg 65%
03:00 +25°C° 0 mm 1 mps 709 mmHg 65%
04:00 +25°C° 0 mm 1 mps 709 mmHg 65%
05:00 +25°C° 0 mm 1 mps 709 mmHg 64%
06:00 +26°C° 0 mm 1 mps 709 mmHg 60%
07:00 +28°C° 0 mm 1 mps 710 mmHg 57%
08:00 +29°C° 0 mm 1 mps 710 mmHg 53%
09:00 +32°C° 0 mm 1 mps 710 mmHg 45%
10:00 +36°C° 0 mm 1 mps 710 mmHg 37%
11:00 +37°C° 0 mm 0 mps 711 mmHg 29%
12:00 +39°C° 0 mm 1 mps 710 mmHg 29%
13:00 +37°C° 0 mm 1 mps 709 mmHg 30%
14:00 +37°C° 0 mm 2 mps 708 mmHg 31%
15:00 +37°C° 0 mm 2 mps 707 mmHg 31%
16:00 +37°C° 0 mm 2 mps 707 mmHg 31%
17:00 +37°C° 0 mm 2 mps 706 mmHg 31%
18:00 +34°C° 0 mm 2 mps 706 mmHg 36%
19:00 +30°C° 0 mm 1 mps 707 mmHg 42%
20:00 +27°C° 0 mm 1 mps 707 mmHg 47%
21:00 +27°C° 0 mm 1 mps 707 mmHg 49%
22:00 +27°C° 0 mm 1 mps 708 mmHg 50%
23:00 +26°C° 0 mm 1 mps 709 mmHg 51%

Tomorrow, 2 March, Tuesday

Time Temperature Precipitation Wind Pressure Humidity
00:00 +27°C° 0 mm 1 mps 709 mmHg 50%
01:00 +27°C° 0 mm 1 mps 709 mmHg 49%
02:00 +27°C° 0 mm 1 mps 709 mmHg 49%
03:00 +27°C° 0 mm 1 mps 709 mmHg 52%
04:00 +26°C° 0 mm 1 mps 709 mmHg 54%
05:00 +26°C° 0 mm 1 mps 709 mmHg 57%
06:00 +27°C° 0 mm 1 mps 709 mmHg 56%
07:00 +27°C° 0 mm 1 mps 710 mmHg 55%
08:00 +28°C° 0 mm 1 mps 710 mmHg 54%
09:00 +32°C° 0 mm 1 mps 710 mmHg 44%
10:00 +36°C° 0 mm 1 mps 711 mmHg 35%
11:00 +38°C° 0 mm 0 mps 711 mmHg 25%
12:00 +40°C° 0 mm 1 mps 710 mmHg 26%
13:00 +39°C° 0 mm 2 mps 709 mmHg 26%
14:00 +38°C° 0 mm 3 mps 708 mmHg 27%
15:00 +38°C° 0 mm 2 mps 708 mmHg 28%
16:00 +38°C° 0 mm 2 mps 707 mmHg 29%
17:00 +38°C° 0 mm 2 mps 707 mmHg 30%
18:00 +35°C° 0 mm 2 mps 707 mmHg 36%
19:00 +31°C° 0 mm 1 mps 708 mmHg 41%
20:00 +29°C° 0 mm 1 mps 708 mmHg 47%
21:00 +28°C° 0 mm 1 mps 709 mmHg 49%
22:00 +28°C° 0 mm 1 mps 709 mmHg 50%
23:00 +27°C° 0 mm 1 mps 710 mmHg 52%

Day after tomorrow, 3 March, Wednesday

Time Temperature Precipitation Wind Pressure Humidity
00:00 +27°C° 0 mm 1 mps 710 mmHg 55%
01:00 +26°C° 0 mm 1 mps 710 mmHg 57%
02:00 +26°C° 0 mm 1 mps 710 mmHg 60%
03:00 +25°C° 0 mm 1 mps 710 mmHg 63%
04:00 +25°C° 0 mm 1 mps 710 mmHg 67%
05:00 +24°C° 0 mm 1 mps 710 mmHg 70%
06:00 +25°C° 0 mm 1 mps 710 mmHg 66%
07:00 +27°C° 0 mm 1 mps 711 mmHg 63%
08:00 +28°C° 0 mm 1 mps 712 mmHg 60%
09:00 +32°C° 0 mm 1 mps 712 mmHg 50%
10:00 +36°C° 0 mm 1 mps 712 mmHg 40%
11:00 +40°C° 0 mm 1 mps 712 mmHg 30%
12:00 +40°C° 0 mm 1 mps 711 mmHg 30%
13:00 +39°C° 0 mm 2 mps 710 mmHg 30%
14:00 +39°C° 0 mm 2 mps 709 mmHg 29%
15:00 +38°C° 0 mm 3 mps 709 mmHg 32%
16:00 +37°C° 0 mm 3 mps 708 mmHg 35%
17:00 +36°C° 0 mm 3 mps 708 mmHg 38%
18:00 +34°C° 0 mm 2 mps 708 mmHg 46%
19:00 +30°C° 0 mm 1 mps 709 mmHg 53%
20:00 +28°C° 0 mm 1 mps 709 mmHg 60%
21:00 +27°C° 0.1 mm 1 mps 709 mmHg 65%
22:00 +26°C° 0.1 mm 1 mps 710 mmHg 70%
23:00 +25°C° 0.1 mm 1 mps 710 mmHg 75%

4 March, Thursday

Time Temperature Precipitation Wind Pressure Humidity
00:00 +25°C° 0.1 mm 1 mps 710 mmHg 76%
01:00 +25°C° 0.1 mm 1 mps 710 mmHg 77%
02:00 +24°C° 0.1 mm 1 mps 709 mmHg 78%
03:00 +24°C° 0 mm 1 mps 709 mmHg 80%
04:00 +23°C° 0 mm 1 mps 709 mmHg 82%
05:00 +23°C° 0 mm 1 mps 709 mmHg 84%
06:00 +24°C° 0 mm 1 mps 710 mmHg 80%
07:00 +26°C° 0 mm 1 mps 710 mmHg 76%
08:00 +27°C° 0 mm 1 mps 711 mmHg 72%
09:00 +29°C° 0 mm 1 mps 711 mmHg 63%
10:00 +32°C° 0 mm 2 mps 711 mmHg 54%
11:00 +35°C° 0 mm 2 mps 711 mmHg 45%
12:00 +36°C° 0.1 mm 2 mps 710 mmHg 42%
13:00 +37°C° 0.1 mm 3 mps 710 mmHg 38%
14:00 +38°C° 0.1 mm 3 mps 709 mmHg 35%
15:00 +37°C° 0.1 mm 3 mps 708 mmHg 40%
16:00 +35°C° 0.1 mm 3 mps 708 mmHg 45%
17:00 +34°C° 0.1 mm 4 mps 707 mmHg 50%
18:00 +30°C° 2.6 mm 3 mps 708 mmHg 65%
19:00 +27°C° 2.6 mm 2 mps 708 mmHg 79%
20:00 +25°C° 2.6 mm 2 mps 709 mmHg 94%
21:00 +24°C° 2 mm 2 mps 709 mmHg 95%
22:00 +24°C° 2 mm 1 mps 710 mmHg 96%
23:00 +24°C° 2 mm 1 mps 710 mmHg 97%

5 March, Friday

Time Temperature Precipitation Wind Pressure Humidity
00:00 +24°C° 2.1 mm 1 mps 710 mmHg 97%
01:00 +24°C° 2.1 mm 1 mps 710 mmHg 98%
02:00 +23°C° 2.1 mm 1 mps 709 mmHg 98%
03:00 +23°C° 6.2 mm 1 mps 709 mmHg 98%
04:00 +23°C° 6.2 mm 1 mps 709 mmHg 98%
05:00 +22°C° 6.2 mm 1 mps 709 mmHg 98%
06:00 +22°C° 1.6 mm 1 mps 709 mmHg 98%
07:00 +22°C° 1.6 mm 1 mps 710 mmHg 97%
08:00 +22°C° 1.6 mm 1 mps 711 mmHg 97%
09:00 +22°C° 0 mm 1 mps 711 mmHg 93%
10:00 +23°C° 0 mm 1 mps 711 mmHg 89%
11:00 +24°C° 0 mm 1 mps 712 mmHg 85%
12:00 +25°C° 0 mm 1 mps 711 mmHg 79%
13:00 +26°C° 0 mm 1 mps 711 mmHg 72%
14:00 +26°C° 0 mm 1 mps 711 mmHg 66%
15:00 +26°C° 0 mm 1 mps 710 mmHg 67%
16:00 +26°C° 0 mm 1 mps 709 mmHg 67%
17:00 +26°C° 0 mm 1 mps 709 mmHg 68%
18:00 +25°C° 0 mm 1 mps 709 mmHg 68%
19:00 +25°C° 0 mm 1 mps 709 mmHg 68%
20:00 +24°C° 0 mm 1 mps 709 mmHg 68%
21:00 +24°C° 0 mm 1 mps 710 mmHg 67%
22:00 +24°C° 0 mm 1 mps 710 mmHg 67%
23:00 +24°C° 0 mm 1 mps 710 mmHg 67%

6 March, Saturday

Time Temperature Precipitation Wind Pressure Humidity
00:00 +23°C° 0 mm 1 mps 710 mmHg 68%
01:00 +23°C° 0 mm 1 mps 710 mmHg 70%
02:00 +23°C° 0 mm 1 mps 710 mmHg 72%
03:00 +22°C° 0 mm 1 mps 709 mmHg 73%
04:00 +22°C° 0 mm 1 mps 709 mmHg 73%
05:00 +22°C° 0 mm 1 mps 709 mmHg 74%
06:00 +23°C° 0 mm 1 mps 709 mmHg 69%
07:00 +25°C° 0 mm 1 mps 710 mmHg 64%
08:00 +27°C° 0 mm 1 mps 710 mmHg 59%
09:00 +29°C° 0 mm 1 mps 710 mmHg 51%
10:00 +32°C° 0 mm 1 mps 711 mmHg 42%
11:00 +36°C° 0 mm 2 mps 711 mmHg 34%
12:00 +36°C° 0 mm 2 mps 710 mmHg 34%
13:00 +36°C° 0 mm 3 mps 709 mmHg 33%
14:00 +36°C° 0 mm 3 mps 709 mmHg 33%
15:00 +35°C° 0 mm 3 mps 708 mmHg 36%
16:00 +34°C° 0 mm 3 mps 708 mmHg 39%
17:00 +33°C° 0 mm 3 mps 707 mmHg 43%
18:00 +30°C° 0 mm 2 mps 707 mmHg 53%
19:00 +27°C° 0 mm 2 mps 708 mmHg 63%
20:00 +25°C° 0 mm 1 mps 708 mmHg 73%
21:00 +24°C° 0 mm 1 mps 708 mmHg 77%
22:00 +21°C° 0 mm 0 mps 709 mmHg 81%
23:00 +21°C° 0 mm 0 mps 709 mmHg 85%
Show more

We Need Your Consent

Meteoprog and our Service Providers may store and access personal data such as cookies, device identifiers or other similar technologies on your device and process such data to personalise content and ads, as well as provide social media features and to analyse the traffic.

  • Store and/or access information on your device

    Cookies, device identifiers or other information can be stored or accessed on your device for the purposes indicated above.

  • Personalised ads and content, ad and content measurement, audience insights, and products development

    Ads and content can be personalised based on a profile. More data can be added to better personalise ads and content. Ad and content performance can be measured. Insights about the audience who saw the ads and content can be derived. Such data can be used to develop or improve user’s experience, systems and software.

By clicking ‘I Agree’ you will allow the use of indicated cookies, device identifiers, web beacons or other similar technologies. Your settings can be changed in the browser on your device.

For certain purposes, legitimate interests may be relied on, rather than consent. You can read more about this in our Privacy and Cookie Policy.